Des Moines, IA

5:37 PM CST on February 09, 2016 (GMT -0600)
Des Moines International

Weather History for KDSM - June, 2014

Change the Weather History Date:

Wednesday, June 25, 2014

  Actual Average Record
Temperature  
Mean Temperature 77 °F 74 °F  
Max Temperature 88 °F 84 °F 99 °F (1954)
Min Temperature 65 °F 65 °F 47 °F (1958)
Degree Days  
Heating Degree Days 0 0  
Month to date heating degree days 0 14  
Since 1 June heating degree days 0 14  
Since 1 July heating degree days 6787 6199  
Cooling Degree Days 12 10  
Month to date cooling degree days 206 169  
Year to date cooling degree days 337 245  
Since 1 June cooling degree days 206 169  
Growing Degree Days 26 (Base 50)    
Moisture  
Dew Point 59 °F    
Average Humidity 56    
Maximum Humidity 81    
Minimum Humidity 31    
Precipitation  
Precipitation 0.00 in 0.16 in 2.06 in (1935)
Month to date precipitation 3.61 4.12  
Year to date precipitation 14.76 17.30  
Snow  
Snow 0.00 in 0.00 in - ()
Month to date snowfall 0.0 0.0  
Since 1 June snowfall 0.0 0.0  
Since 1 July snowfall 48.3 35.3  
Snow Depth 0.00 in    
Sea Level Pressure  
Sea Level Pressure 29.97 in    
Wind  
Wind Speed 5 mph (WSW)    
Max Wind Speed 10 mph    
Max Gust Speed 14 mph    
Visibility 10 miles    
Events      
T = Trace of Precipitation, MM = Missing Value Source: NWS Daily Summary

Daily Weather History Graph

Daily Weather History Graph

Search for Another Location

Airport or City:

Trip Planner

Search our weather history database for the weather conditions in past years. The results will help you decide how hot, cold, wet, or windy it might be!

Date:

Astronomy

Jun. 25, 2014 Rise Set
Actual Time 5:41 AM CDT 8:52 PM CDT
Civil Twilight 5:07 AM CDT 9:26 PM CDT
Nautical Twilight 4:24 AM CDT 10:10 PM CDT
Astronomical Twilight 3:31 AM CDT 11:02 PM CDT
Moon 4:35 AM CDT (6/25) 7:24 PM CDT (6/25)
Length of Visible Light 16h 18m
Length of Day
15h 10m
Waning Crescent, 3% of the Moon is Illuminated
Jun 25
Waning Crescent
Jun 27
New
Jul 5
First Quarter
Jul 12
Full
Jul 18
Last Quarter

Hourly Weather History & Observations

Time (CDT) Temp. Heat Index Dew Point Humidity Pressure Visibility Wind Dir Wind Speed Gust Speed Precip Events Conditions
12:54 AM 69.1 °F - 61.0 °F 75% 29.96 in 10.0 mi Calm Calm - N/A   Clear
1:54 AM 68.0 °F - 60.1 °F 76% 29.96 in 10.0 mi West 4.6 mph - N/A   Clear
2:54 AM 68.0 °F - 60.1 °F 76% 29.96 in 10.0 mi WNW 4.6 mph - N/A   Clear
3:54 AM 66.0 °F - 60.1 °F 81% 29.96 in 10.0 mi NW 4.6 mph - N/A   Partly Cloudy
4:54 AM 66.0 °F - 57.9 °F 75% 29.97 in 10.0 mi WSW 4.6 mph - N/A   Partly Cloudy
5:54 AM 66.0 °F - 57.9 °F 75% 29.98 in 10.0 mi Calm Calm - N/A   Scattered Clouds
6:54 AM 66.9 °F - 59.0 °F 76% 30.00 in 10.0 mi West 3.5 mph - N/A   Scattered Clouds
7:54 AM 71.1 °F - 60.1 °F 68% 30.01 in 10.0 mi NW 3.5 mph - N/A   Scattered Clouds
8:54 AM 75.9 °F - 62.1 °F 62% 30.01 in 10.0 mi West 3.5 mph - N/A   Partly Cloudy
9:54 AM 79.0 °F - 62.1 °F 56% 30.01 in 10.0 mi WSW 3.5 mph - N/A   Partly Cloudy
10:54 AM 82.9 °F 83.2 °F 60.1 °F 46% 30.00 in 10.0 mi NW 4.6 mph - N/A   Partly Cloudy
11:54 AM 84.9 °F 83.9 °F 57.0 °F 38% 29.99 in 10.0 mi WNW 6.9 mph - N/A   Partly Cloudy
12:54 PM 86.0 °F 84.5 °F 55.0 °F 35% 29.99 in 10.0 mi WNW 9.2 mph - N/A   Partly Cloudy
1:54 PM 87.1 °F 85.9 °F 57.0 °F 36% 29.98 in 10.0 mi Variable 4.6 mph - N/A   Scattered Clouds
2:54 PM 87.1 °F 85.1 °F 54.0 °F 32% 29.98 in 10.0 mi Calm Calm - N/A   Mostly Cloudy
3:54 PM 87.1 °F 86.1 °F 57.9 °F 37% 29.97 in 10.0 mi WSW 4.6 mph - N/A   Mostly Cloudy
4:54 PM 87.1 °F 85.9 °F 57.0 °F 36% 29.96 in 10.0 mi SW 6.9 mph - N/A   Mostly Cloudy
5:54 PM 87.1 °F 86.1 °F 57.9 °F 37% 29.94 in 10.0 mi South 5.8 mph - N/A   Mostly Cloudy
6:54 PM 84.0 °F 83.3 °F 57.0 °F 40% 29.94 in 10.0 mi South 5.8 mph - N/A   Mostly Cloudy
7:54 PM 82.4 °F 82.0 °F 57.2 °F 42% 29.96 in 10.0 mi WSW 4.6 mph - N/A   Mostly Cloudy
8:54 PM 82.4 °F 82.5 °F 59.0 °F 45% 29.96 in 10.0 mi South 4.6 mph - N/A   Mostly Cloudy
9:54 PM 79.0 °F - 60.1 °F 52% 29.95 in 10.0 mi South 4.6 mph - N/A   Mostly Cloudy
10:54 PM 77.0 °F - 61.0 °F 58% 29.96 in 10.0 mi SSE 5.8 mph - N/A   Clear
11:54 PM 75.2 °F - 62.6 °F 65% 30.00 in 10.0 mi South 6.9 mph - N/A   Mostly Cloudy